Location: Neuvy Saint Sepulchre
(46.5953°N, 1.8122°E)
Time: 10:01:23
(UTC+02:00)

ISS - Pass Details

Date: 09 May 2021
Orbit: 417 x 422 km, 51.6° (Epoch: 15 May)

Event Time Altitude Azimuth Distance (km) Brightness Sun altitude
Exits shadow 02:03:26 11° 66° (ENE) 1,464 -0.7 -26.0°
Drops below altitude 10° 02:03:32 10° 66° (ENE) 1,506 -0.6 -26.0°
Sets 02:05:39 0° 64° (ENE) 2,372 0.5 -25.9°
